QPF
0.02 0.05 0.13 0.15 0.11 0.08 0.05 0.06 0.06 0.07 0.06 0.05 0.04 0.07 0.05 0.04 0.04 0.03 0.04 0.04 0.04 0.03 0.02 0.01 0.02 0.02 0.02 0.02 0.02 0.01 0.01 0.01 0.01 0.00 0.00 0.00 0.00 0.01 0.02 0.05 0.04 0.02 0.03
0.01 0.06 0.13 0.13 0.09 0.07 0.06 0.06 0.09 0.10 0.08 0.07 0.06 0.06 0.05 0.04 0.03 0.02 0.01 0.02 0.02 0.02 0.02 0.01 0.02 0.03 0.02 0.03 0.03 0.02 0.01 0.01 0.01 0.01 0.01 0.00 0.01 0.01 0.02 0.05 0.03 0.01 0.03
0.02 0.05 0.10 0.15 0.10 0.10 0.07 0.06 0.08 0.09 0.08 0.07 0.07 0.05 0.05 0.03 0.02 0.01 0.01 0.02 0.02 0.02 0.02 0.01 0.01 0.01 0.01 0.02 0.03 0.02 0.01 0.02 0.02 0.02 0.01 0.00 0.01 0.02 0.02 0.04 0.03 0.03 0.03
0.01 0.02 0.04 0.12 0.10 0.08 0.07 0.08 0.07 0.06 0.05 0.04 0.05 0.05 0.04 0.02 0.02 0.02 0.02 0.02 0.02 0.01 0.01 0.01 0.00 0.00 0.01 0.01 0.02 0.02 0.02 0.02 0.02 0.01 0.01 0.01 0.01 0.03 0.03 0.04 0.04 0.03 0.03
0.02 0.03 0.06 0.09 0.08 0.06 0.05 0.05 0.05 0.03 0.04 0.03 0.04 0.05 0.05 0.03 0.03 0.03 0.02 0.02 0.02 0.02 0.02 0.02 0.01 0.01 0.01 0.01 0.02 0.02 0.03 0.03 0.02 0.01 0.01 0.01 0.01 0.03 0.03 0.04 0.04 0.04 0.04
0.03 0.05 0.06 0.07 0.07 0.05 0.03 0.02 0.02 0.02 0.02 0.03 0.02 0.03 0.03 0.03 0.03 0.03 0.03 0.02 0.02 0.02 0.02 0.02 0.02 0.02 0.01 0.01 0.02 0.03 0.03 0.03 0.01 0.01 0.01 0.01 0.00 0.02 0.04 0.04 0.05 0.06 0.06
0.03 0.03 0.04 0.06 0.05 0.03 0.03 0.02 0.02 0.01 0.01 0.01 0.01 0.01 0.01 0.02 0.02 0.02 0.02 0.01 0.01 0.01 0.01 0.01 0.01 0.01 0.01 0.01 0.01 0.03 0.03 0.02 0.01 0.00 0.00 0.01 0.01 0.03 0.05 0.06 0.07 0.08 0.09
0.02 0.01 0.02 0.04 0.03 0.02 0.02 0.02 0.02 0.02 0.01 0.01 0.01 0.01 0.01 0.01 0.01 0.00 0.01 0.00 0.00 0.01 0.01 0.01 0.01 0.01 0.00 0.00 0.01 0.02 0.03 0.03 0.01 0.00 0.00 0.01 0.02 0.04 0.04 0.06 0.08 0.10 0.13
0.02 0.01 0.01 0.03 0.02 0.02 0.02 0.01 0.01 0.01 0.01 0.00 0.00 0.00 0.00 0.00 0.00 0.00 0.00 0.00 0.01 0.01 0.01 0.01 0.00 0.00 0.00 0.00 0.01 0.02 0.03 0.03 0.01 0.00 0.00 0.01 0.03 0.06 0.05 0.09 0.12 0.12 0.15
0.03 0.02 0.01 0.02 0.01 0.01 0.01 0.01 0.01 0.01 0.01 0.00 0.00 0.00 0.00 0.00 0.00 0.00 0.00 0.00 0.00 0.01 0.01 0.01 0.01 0.00 0.00 0.00 0.01 0.01 0.02 0.02 0.01 0.00 0.00 0.01 0.04 0.07 0.05 0.12 0.15 0.12 0.13
0.03 0.02 0.01 0.01 0.01 0.00 0.00 0.00 0.00 0.01 0.01 0.00 0.00 0.00 0.00 0.00 0.00 0.00 0.00 0.00 0.01 0.01 0.01 0.01 0.01 0.01 0.01 0.01 0.01 0.01 0.01 0.01 0.01 0.00 0.00 0.02 0.05 0.07 0.07 0.11 0.12 0.08 0.08
0.01 0.01 0.01 0.02 0.01 0.00 0.00 0.00 0.00 0.00 0.00 0.00 0.00 0.00 0.00 0.00 0.00 0.00 0.00 0.00 0.01 0.01 0.00 0.01 0.01 0.01 0.01 0.00 0.01 0.01 0.01 0.01 0.01 0.00 0.00 0.03 0.06 0.08 0.06 0.05 0.05 0.04 0.05
0.01 0.01 0.01 0.01 0.00 0.00 0.00 0.00 0.00 0.00 0.00 0.00 0.00 0.00 0.00 0.00 0.00 0.00 0.00 0.00 0.00 0.00 0.00 0.00 0.00 0.00 0.00 0.00 0.00 0.00 0.00 0.01 0.01 0.00 0.01 0.03 0.06 0.06 0.05 0.04 0.04 0.03 0.04
0.01 0.00 0.00 0.01 0.00 0.00 0.00 0.00 0.00 0.00 0.00 0.00 0.00 0.00 0.00 0.00 0.00 0.00 0.00 0.00 0.00 0.00 0.00 0.00 0.00 0.00 0.00 0.00 0.00 0.00 0.00 0.00 0.00 0.00 0.00 0.02 0.05 0.05 0.04 0.04 0.05 0.04 0.03
0.00 0.00 0.00 0.00 0.00 0.00 0.00 0.00 0.00 0.00 0.00 0.00 0.00 0.00 0.00 0.00 0.00 0.00 0.00 0.00 0.00 0.00 0.00 0.00 0.00 0.00 0.01 0.01 0.00 0.00 0.00 0.00 0.00 0.00 0.00 0.01 0.03 0.05 0.05 0.05 0.05 0.04 0.04
0.00 0.00 0.00 0.00 0.00 0.00 0.00 0.00 0.00 0.00 0.00 0.00 0.00 0.00 0.00 0.00 0.00 0.00 0.00 0.00 0.00 0.00 0.00 0.00 0.00 0.00 0.01 0.01 0.01 0.01 0.01 0.00 0.00 0.00 0.00 0.01 0.01 0.03 0.04 0.05 0.05 0.06 0.06
0.00 0.00 0.00 0.00 0.00 0.01 0.01 0.00 0.00 0.00 0.00 0.00 0.00 0.00 0.00 0.00 0.00 0.00 0.00 0.00 0.00 0.00 0.00 0.00 0.00 0.00 0.01 0.01 0.01 0.02 0.01 0.01 0.01 0.00 0.00 0.00 0.00 0.01 0.03 0.04 0.06 0.06 0.06
0.01 0.00 0.00 0.00 0.00 0.00 0.00 0.00 0.00 0.00 0.00 0.00 0.00 0.00 0.00 0.00 0.00 0.00 0.00 0.00 0.00 0.00 0.00 0.00 0.00 0.00 0.00 0.01 0.01 0.01 0.02 0.02 0.02 0.01 0.00 0.00 0.00 0.01 0.01 0.03 0.04 0.06 0.07
0.01 0.00 0.01 0.00 0.01 0.01 0.00 0.00 0.00 0.00 0.00 0.00 0.00 0.00 0.00 0.00 0.00 0.00 0.00 0.00 0.00 0.00 0.00 0.00 0.00 0.00 0.00 0.01 0.01 0.01 0.01 0.01 0.01 0.01 0.01 0.01 0.01 0.01 0.01 0.02 0.03 0.05 0.05
0.01 0.01 0.01 0.01 0.01 0.01 0.00 0.00 0.00 0.00 0.00 0.00 0.00 0.00 0.00 0.00 0.00 0.00 0.00 0.00 0.00 0.00 0.00 0.00 0.00 0.00 0.00 0.01 0.01 0.00 0.01 0.01 0.02 0.01 0.01 0.01 0.02 0.02 0.01 0.01 0.02 0.03 0.04
0.02 0.01 0.01 0.00 0.01 0.01 0.00 0.00 0.00 0.00 0.00 0.00 0.00 0.00 0.00 0.00 0.00 0.00 0.00 0.00 0.00 0.00 0.01 0.00 0.00 0.00 0.00 0.01 0.01 0.00 0.01 0.02 0.02 0.02 0.01 0.02 0.02 0.03 0.02 0.02 0.01 0.02 0.03
0.02 0.01 0.00 0.00 0.00 0.00 0.00 0.01 0.00 0.00 0.00 0.00 0.00 0.00 0.00 0.00 0.00 0.00 0.00 0.00 0.00 0.01 0.01 0.00 0.00 0.00 0.00 0.00 0.00 0.01 0.01 0.01 0.01 0.02 0.01 0.01 0.01 0.02 0.02 0.03 0.03 0.03 0.03
0.02 0.01 0.00 0.00 0.00 0.00 0.01 0.01 0.00 0.00 0.00 0.00 0.00 0.00 0.00 0.00 0.00 0.00 0.00 0.00 0.00 0.00 0.00 0.00 0.00 0.00 0.00 0.00 0.00 0.00 0.01 0.01 0.02 0.02 0.01 0.01 0.01 0.01 0.01 0.03 0.04 0.03 0.02
0.02 0.01 0.00 0.01 0.01 0.01 0.01 0.00 0.00 0.00 0.00 0.00 0.00 0.00 0.00 0.00 0.00 0.00 0.00 0.00 0.00 0.00 0.00 0.00 0.00 0.00 0.00 0.00 0.00 0.00 0.00 0.01 0.02 0.01 0.01 0.01 0.01 0.01 0.01 0.01 0.03 0.03 0.02
0.02 0.01 0.00 0.01 0.01 0.01 0.01 0.01 0.00 0.00 0.00 0.00 0.00 0.00 0.00 0.00 0.00 0.00 0.00 0.00 0.01 0.01 0.00 0.00 0.00 0.00 0.00 0.00 0.00 0.00 0.00 0.01 0.02 0.01 0.01 0.01 0.01 0.01 0.00 0.00 0.01 0.02 0.02
0.01 0.01 0.00 0.00 0.01 0.01 0.01 0.01 0.00 0.00 0.00 0.00 0.00 0.00 0.00 0.00 0.00 0.00 0.00 0.00 0.00 0.00 0.00 0.00 0.00 0.00 0.00 0.00 0.00 0.00 0.00 0.01 0.03 0.03 0.02 0.01 0.01 0.00 0.01 0.00 0.00 0.01 0.01
MSLP
1013.89 1013.25 1012.73 1012.39 1012.27 1012.33 1012.52 1012.78 1013.03 1013.22 1013.32 1013.33 1013.28 1013.21 1013.18 1013.21 1013.29 1013.43 1013.58 1013.71 1013.78 1013.80 1013.75 1013.68 1013.59 1013.53 1013.51 1013.52 1013.56 1013.60 1013.62 1013.61 1013.57 1013.51 1013.45 1013.41 1013.39 1013.41 1013.44 1013.47 1013.49 1013.48 1013.46
1013.96 1013.37 1012.90 1012.60 1012.50 1012.58 1012.78 1013.04 1013.29 1013.48 1013.60 1013.63 1013.61 1013.58 1013.57 1013.60 1013.69 1013.80 1013.93 1014.02 1014.06 1014.05 1013.98 1013.88 1013.77 1013.68 1013.62 1013.59 1013.57 1013.57 1013.55 1013.52 1013.47 1013.42 1013.37 1013.34 1013.33 1013.34 1013.37 1013.39 1013.40 1013.40 1013.38
1013.99 1013.48 1013.08 1012.84 1012.78 1012.87 1013.07 1013.33 1013.58 1013.77 1013.90 1013.95 1013.96 1013.95 1013.95 1013.98 1014.04 1014.12 1014.20 1014.24 1014.24 1014.19 1014.09 1013.97 1013.85 1013.74 1013.65 1013.59 1013.54 1013.50 1013.47 1013.42 1013.38 1013.33 1013.30 1013.29 1013.29 1013.31 1013.33 1013.34 1013.35 1013.34 1013.32
1014.02 1013.62 1013.30 1013.13 1013.11 1013.22 1013.42 1013.65 1013.88 1014.07 1014.19 1014.26 1014.28 1014.28 1014.28 1014.29 1014.31 1014.34 1014.35 1014.34 1014.30 1014.21 1014.10 1013.98 1013.85 1013.74 1013.65 1013.57 1013.51 1013.45 1013.40 1013.36 1013.32 1013.29 1013.28 1013.29 1013.30 1013.32 1013.33 1013.33 1013.33 1013.31 1013.29
1014.09 1013.80 1013.58 1013.48 1013.50 1013.62 1013.80 1014.00 1014.20 1014.35 1014.46 1014.51 1014.53 1014.52 1014.51 1014.49 1014.47 1014.45 1014.40 1014.34 1014.26 1014.15 1014.04 1013.93 1013.82 1013.72 1013.64 1013.56 1013.50 1013.44 1013.38 1013.34 1013.31 1013.30 1013.30 1013.32 1013.34 1013.35 1013.35 1013.34 1013.31 1013.28 1013.25
1014.23 1014.04 1013.92 1013.88 1013.93 1014.05 1014.20 1014.36 1014.50 1014.60 1014.67 1014.70 1014.71 1014.69 1014.65 1014.61 1014.55 1014.47 1014.38 1014.28 1014.17 1014.06 1013.96 1013.86 1013.78 1013.71 1013.65 1013.59 1013.52 1013.46 1013.40 1013.36 1013.34 1013.33 1013.34 1013.36 1013.38 1013.38 1013.37 1013.33 1013.29 1013.23 1013.18
1014.43 1014.33 1014.29 1014.31 1014.39 1014.49 1014.60 1014.70 1014.78 1014.83 1014.85 1014.85 1014.83 1014.79 1014.74 1014.67 1014.59 1014.48 1014.35 1014.22 1014.10 1013.98 1013.89 1013.82 1013.77 1013.73 1013.68 1013.63 1013.56 1013.50 1013.44 1013.39 1013.36 1013.36 1013.37 1013.38 1013.39 1013.38 1013.35 1013.29 1013.22 1013.15 1013.07
1014.69 1014.66 1014.68 1014.74 1014.83 1014.91 1014.98 1015.02 1015.04 1015.03 1015.01 1014.97 1014.94 1014.89 1014.83 1014.75 1014.65 1014.52 1014.37 1014.22 1014.08 1013.97 1013.88 1013.82 1013.79 1013.75 1013.72 1013.66 1013.60 1013.52 1013.44 1013.38 1013.35 1013.33 1013.34 1013.34 1013.34 1013.32 1013.27 1013.20 1013.12 1013.02 1012.92
1014.95 1014.97 1015.04 1015.13 1015.22 1015.29 1015.32 1015.32 1015.28 1015.23 1015.18 1015.13 1015.08 1015.04 1014.98 1014.90 1014.78 1014.64 1014.47 1014.30 1014.15 1014.02 1013.93 1013.86 1013.82 1013.78 1013.73 1013.67 1013.58 1013.49 1013.40 1013.32 1013.27 1013.24 1013.24 1013.24 1013.23 1013.20 1013.15 1013.07 1012.98 1012.86 1012.74
1015.19 1015.24 1015.33 1015.45 1015.54 1015.61 1015.62 1015.59 1015.53 1015.45 1015.38 1015.33 1015.29 1015.26 1015.21 1015.13 1015.01 1014.86 1014.67 1014.48 1014.30 1014.14 1014.02 1013.92 1013.85 1013.79 1013.72 1013.62 1013.52 1013.40 1013.29 1013.20 1013.13 1013.10 1013.08 1013.08 1013.07 1013.05 1013.00 1012.93 1012.84 1012.72 1012.58
1015.37 1015.44 1015.56 1015.69 1015.80 1015.86 1015.88 1015.84 1015.77 1015.70 1015.63 1015.59 1015.57 1015.55 1015.51 1015.44 1015.33 1015.16 1014.96 1014.73 1014.51 1014.31 1014.14 1014.00 1013.88 1013.78 1013.67 1013.55 1013.42 1013.28 1013.15 1013.05 1012.98 1012.93 1012.92 1012.92 1012.92 1012.90 1012.87 1012.82 1012.73 1012.62 1012.48
1015.50 1015.58 1015.72 1015.86 1015.99 1016.07 1016.09 1016.07 1016.02 1015.96 1015.92 1015.90 1015.89 1015.89 1015.87 1015.80 1015.69 1015.51 1015.28 1015.02 1014.76 1014.50 1014.28 1014.08 1013.91 1013.76 1013.61 1013.47 1013.32 1013.17 1013.04 1012.94 1012.86 1012.81 1012.80 1012.80 1012.80 1012.80 1012.79 1012.75 1012.69 1012.59 1012.45
1015.59 1015.69 1015.83 1016.00 1016.14 1016.24 1016.29 1016.30 1016.27 1016.24 1016.22 1016.22 1016.23 1016.24 1016.22 1016.16 1016.04 1015.86 1015.61 1015.32 1015.01 1014.71 1014.43 1014.18 1013.96 1013.77 1013.60 1013.43 1013.28 1013.14 1013.01 1012.91 1012.84 1012.79 1012.77 1012.77 1012.77 1012.78 1012.77 1012.75 1012.71 1012.63 1012.50
1015.68 1015.79 1015.95 1016.13 1016.29 1016.41 1016.49 1016.52 1016.53 1016.52 1016.52 1016.53 1016.55 1016.56 1016.54 1016.48 1016.36 1016.16 1015.90 1015.59 1015.25 1014.91 1014.59 1014.31 1014.05 1013.84 1013.65 1013.49 1013.35 1013.22 1013.11 1013.02 1012.95 1012.90 1012.87 1012.85 1012.84 1012.84 1012.83 1012.81 1012.77 1012.71 1012.59
1015.80 1015.93 1016.11 1016.29 1016.46 1016.60 1016.70 1016.76 1016.78 1016.79 1016.80 1016.81 1016.82 1016.82 1016.80 1016.73 1016.60 1016.40 1016.14 1015.83 1015.48 1015.13 1014.79 1014.48 1014.22 1013.99 1013.81 1013.66 1013.54 1013.44 1013.35 1013.27 1013.20 1013.14 1013.09 1013.04 1013.00 1012.96 1012.93 1012.90 1012.86 1012.80 1012.71
1015.99 1016.13 1016.31 1016.50 1016.67 1016.82 1016.94 1017.01 1017.05 1017.06 1017.06 1017.05 1017.05 1017.03 1016.99 1016.91 1016.78 1016.59 1016.34 1016.04 1015.71 1015.36 1015.03 1014.72 1014.46 1014.25 1014.08 1013.95 1013.86 1013.78 1013.72 1013.65 1013.57 1013.49 1013.40 1013.30 1013.21 1013.13 1013.06 1013.00 1012.94 1012.88 1012.80
1016.23 1016.38 1016.56 1016.74 1016.92 1017.07 1017.19 1017.27 1017.32 1017.33 1017.31 1017.28 1017.25 1017.20 1017.13 1017.04 1016.92 1016.74 1016.52 1016.25 1015.95 1015.63 1015.32 1015.03 1014.78 1014.58 1014.43 1014.33 1014.26 1014.21 1014.16 1014.09 1014.01 1013.90 1013.76 1013.61 1013.46 1013.32 1013.19 1013.09 1013.01 1012.94 1012.88
1016.50 1016.65 1016.82 1017.00 1017.17 1017.33 1017.46 1017.55 1017.60 1017.60 1017.57 1017.52 1017.44 1017.36 1017.27 1017.17 1017.05 1016.90 1016.71 1016.49 1016.23 1015.95 1015.66 1015.40 1015.17 1014.98 1014.85 1014.76 1014.71 1014.67 1014.63 1014.56 1014.46 1014.32 1014.15 1013.94 1013.73 1013.52 1013.33 1013.18 1013.08 1013.00 1012.95
1016.75 1016.90 1017.06 1017.23 1017.40 1017.57 1017.71 1017.82 1017.88 1017.89 1017.85 1017.77 1017.67 1017.56 1017.44 1017.33 1017.22 1017.09 1016.94 1016.76 1016.54 1016.30 1016.06 1015.81 1015.60 1015.42 1015.29 1015.21 1015.16 1015.13 1015.09 1015.02 1014.91 1014.74 1014.53 1014.28 1014.01 1013.75 1013.51 1013.32 1013.18 1013.10 1013.07
1016.94 1017.09 1017.24 1017.40 1017.58 1017.76 1017.93 1018.06 1018.15 1018.17 1018.13 1018.04 1017.92 1017.79 1017.66 1017.54 1017.43 1017.32 1017.21 1017.07 1016.90 1016.70 1016.48 1016.26 1016.05 1015.88 1015.74 1015.66 1015.60 1015.56 1015.52 1015.45 1015.33 1015.15 1014.91 1014.64 1014.34 1014.04 1013.77 1013.54 1013.39 1013.29 1013.27
1017.05 1017.18 1017.32 1017.48 1017.67 1017.87 1018.08 1018.25 1018.38 1018.43 1018.41 1018.32 1018.19 1018.05 1017.91 1017.78 1017.68 1017.60 1017.51 1017.41 1017.28 1017.12 1016.93 1016.73 1016.52 1016.34 1016.20 1016.10 1016.03 1015.99 1015.94 1015.86 1015.74 1015.56 1015.33 1015.04 1014.73 1014.41 1014.13 1013.89 1013.71 1013.61 1013.59
1017.06 1017.18 1017.31 1017.47 1017.67 1017.90 1018.15 1018.37 1018.54 1018.64 1018.65 1018.58 1018.46 1018.31 1018.17 1018.04 1017.95 1017.88 1017.82 1017.76 1017.67 1017.54 1017.38 1017.19 1017.00 1016.81 1016.66 1016.55 1016.47 1016.41 1016.36 1016.28 1016.17 1016.00 1015.78 1015.50 1015.20 1014.89 1014.60 1014.36 1014.17 1014.07 1014.04
1017.01 1017.11 1017.23 1017.39 1017.60 1017.86 1018.15 1018.42 1018.64 1018.78 1018.83 1018.79 1018.69 1018.55 1018.40 1018.28 1018.19 1018.14 1018.10 1018.07 1018.01 1017.93 1017.80 1017.63 1017.45 1017.28 1017.12 1017.00 1016.91 1016.85 1016.80 1016.73 1016.63 1016.48 1016.28 1016.03 1015.75 1015.46 1015.17 1014.93 1014.74 1014.62 1014.58
1016.94 1017.04 1017.14 1017.29 1017.51 1017.78 1018.09 1018.39 1018.66 1018.84 1018.93 1018.92 1018.84 1018.72 1018.58 1018.46 1018.38 1018.33 1018.32 1018.31 1018.29 1018.24 1018.15 1018.03 1017.87 1017.71 1017.57 1017.45 1017.36 1017.30 1017.25 1017.19 1017.11 1016.98 1016.81 1016.59 1016.33 1016.06 1015.79 1015.55 1015.35 1015.21 1015.14
1016.91 1017.01 1017.10 1017.23 1017.43 1017.70 1018.01 1018.33 1018.62 1018.84 1018.96 1018.98 1018.92 1018.81 1018.68 1018.57 1018.49 1018.45 1018.46 1018.47 1018.49 1018.48 1018.43 1018.34 1018.23 1018.10 1017.98 1017.88 1017.80 1017.74 1017.70 1017.65 1017.58 1017.48 1017.33 1017.14 1016.90 1016.65 1016.39 1016.14 1015.93 1015.77 1015.66
1016.98 1017.06 1017.13 1017.24 1017.41 1017.65 1017.95 1018.27 1018.56 1018.80 1018.94 1018.98 1018.94 1018.84 1018.72 1018.61 1018.53 1018.50 1018.51 1018.55 1018.59 1018.62 1018.61 1018.58 1018.51 1018.42 1018.33 1018.25 1018.19 1018.15 1018.11 1018.07 1018.02 1017.93 1017.80 1017.63 1017.42 1017.17 1016.92 1016.66 1016.43 1016.23 1016.08
Thickness
5771 5773 5774 5773 5773 5771 5770 5769 5768 5766 5765 5764 5762 5761 5760 5759 5758 5757 5756 5755 5754 5754 5754 5754 5754 5754 5754 5754 5755 5756 5757 5758 5758 5760 5761 5762 5763 5764 5764 5765 5766 5767 5768
5773 5773 5772 5772 5771 5770 5768 5767 5765 5764 5763 5761 5760 5758 5757 5756 5755 5754 5753 5752 5751 5751 5751 5751 5751 5751 5751 5752 5752 5753 5754 5755 5756 5757 5759 5760 5761 5762 5763 5764 5765 5765 5767
5773 5772 5771 5771 5770 5768 5767 5765 5763 5762 5760 5759 5757 5756 5754 5753 5752 5751 5750 5750 5749 5748 5748 5748 5748 5748 5749 5749 5750 5750 5751 5752 5754 5755 5756 5757 5759 5760 5761 5762 5764 5764 5765
5772 5770 5770 5769 5767 5766 5764 5763 5761 5759 5758 5756 5754 5753 5752 5751 5750 5749 5748 5747 5746 5746 5745 5745 5745 5746 5746 5746 5747 5747 5748 5749 5751 5752 5753 5755 5757 5758 5760 5761 5762 5763 5764
5769 5768 5767 5766 5765 5763 5762 5760 5759 5757 5756 5754 5752 5751 5750 5748 5747 5746 5745 5745 5744 5743 5743 5742 5742 5742 5743 5743 5744 5744 5745 5747 5748 5749 5751 5753 5754 5756 5758 5759 5761 5762 5763
5767 5766 5765 5764 5762 5761 5759 5758 5757 5755 5753 5752 5750 5749 5747 5746 5745 5744 5743 5742 5741 5740 5740 5739 5739 5739 5740 5740 5741 5742 5743 5744 5745 5746 5748 5750 5752 5754 5756 5757 5759 5760 5761
5764 5763 5762 5761 5760 5759 5757 5755 5754 5753 5751 5749 5748 5746 5745 5744 5743 5742 5740 5739 5739 5738 5737 5736 5736 5736 5737 5737 5738 5739 5740 5741 5742 5744 5745 5747 5750 5752 5754 5755 5757 5758 5759
5762 5761 5759 5758 5757 5756 5755 5753 5752 5750 5749 5747 5745 5744 5743 5742 5741 5740 5739 5737 5736 5735 5735 5734 5733 5734 5734 5735 5736 5737 5738 5739 5740 5741 5743 5745 5747 5749 5751 5753 5754 5755 5756
5759 5758 5756 5755 5754 5754 5752 5751 5749 5748 5747 5745 5743 5742 5741 5740 5739 5738 5737 5736 5735 5733 5733 5732 5731 5731 5732 5732 5733 5734 5735 5736 5737 5738 5740 5742 5745 5747 5749 5750 5751 5753 5754
5756 5755 5754 5752 5752 5751 5749 5748 5747 5746 5744 5743 5741 5740 5739 5738 5736 5735 5735 5734 5733 5731 5730 5730 5729 5729 5729 5729 5730 5732 5732 5733 5734 5735 5737 5739 5742 5744 5746 5747 5749 5750 5751
5751 5751 5751 5750 5749 5748 5747 5746 5744 5743 5742 5740 5739 5738 5737 5736 5734 5733 5732 5732 5730 5729 5728 5727 5727 5726 5726 5727 5728 5729 5729 5730 5731 5732 5734 5736 5738 5741 5743 5745 5746 5747 5749
5745 5747 5748 5748 5746 5745 5744 5743 5742 5741 5740 5739 5737 5736 5734 5733 5732 5731 5730 5729 5728 5726 5725 5724 5724 5724 5723 5723 5724 5725 5726 5727 5728 5729 5731 5733 5736 5738 5740 5742 5744 5745 5747
5745 5746 5746 5745 5744 5743 5742 5741 5740 5739 5738 5736 5735 5734 5732 5731 5730 5728 5727 5726 5724 5723 5722 5721 5721 5720 5720 5720 5721 5722 5722 5724 5725 5726 5728 5731 5733 5735 5737 5740 5741 5743 5744
5744 5744 5744 5744 5743 5741 5740 5739 5737 5736 5735 5734 5733 5731 5730 5728 5726 5725 5723 5722 5721 5720 5719 5718 5717 5717 5717 5717 5718 5718 5719 5720 5722 5723 5725 5728 5730 5732 5735 5737 5739 5741 5742
5742 5742 5743 5742 5741 5740 5738 5737 5735 5734 5733 5732 5730 5729 5727 5726 5723 5722 5720 5719 5718 5717 5716 5715 5714 5714 5714 5714 5714 5715 5715 5717 5718 5720 5722 5724 5727 5729 5731 5734 5736 5738 5740
5741 5741 5741 5741 5740 5738 5736 5734 5733 5732 5731 5730 5728 5727 5725 5723 5721 5720 5718 5716 5715 5714 5713 5712 5711 5711 5710 5711 5711 5711 5712 5713 5715 5717 5718 5721 5723 5726 5729 5731 5734 5736 5738
5740 5740 5739 5739 5738 5736 5735 5733 5731 5730 5729 5727 5726 5725 5723 5721 5720 5718 5716 5714 5713 5712 5711 5710 5709 5708 5708 5707 5707 5708 5709 5710 5711 5713 5715 5717 5720 5722 5725 5728 5730 5733 5736
5740 5739 5739 5739 5736 5734 5733 5731 5729 5727 5726 5725 5724 5722 5721 5719 5718 5716 5714 5712 5711 5710 5708 5707 5705 5704 5703 5703 5703 5704 5705 5706 5708 5710 5711 5713 5716 5718 5722 5724 5727 5730 5733
5739 5738 5736 5735 5734 5732 5730 5728 5727 5725 5724 5723 5721 5720 5719 5717 5716 5714 5712 5710 5709 5708 5706 5705 5702 5701 5699 5699 5700 5700 5701 5703 5704 5706 5708 5710 5712 5715 5718 5721 5724 5726 5729
5738 5736 5734 5732 5731 5729 5727 5726 5724 5722 5721 5720 5719 5718 5717 5715 5714 5712 5710 5708 5707 5705 5703 5702 5700 5698 5697 5696 5698 5698 5698 5699 5701 5702 5703 5706 5708 5711 5714 5717 5720 5723 5725
5734 5732 5731 5729 5728 5726 5724 5722 5720 5718 5718 5717 5717 5716 5715 5713 5712 5710 5708 5706 5704 5702 5700 5699 5698 5696 5694 5694 5694 5692 5694 5696 5697 5698 5700 5702 5704 5707 5710 5713 5715 5718 5721
5731 5730 5729 5727 5726 5725 5724 5722 5719 5717 5716 5715 5715 5714 5713 5711 5710 5708 5706 5704 5702 5701 5699 5697 5696 5693 5691 5691 5689 5686 5684 5687 5691 5695 5696 5698 5700 5703 5705 5708 5711 5714 5717
5728 5728 5728 5726 5725 5724 5723 5720 5718 5716 5714 5713 5712 5712 5711 5710 5708 5706 5705 5703 5701 5699 5697 5695 5693 5691 5688 5688 5687 5684 5679 5677 5680 5687 5690 5693 5695 5698 5701 5704 5707 5710 5713
5728 5728 5727 5726 5724 5723 5722 5720 5717 5713 5710 5710 5709 5709 5709 5708 5707 5705 5704 5702 5700 5698 5696 5694 5693 5690 5688 5685 5685 5683 5682 5680 5677 5677 5684 5688 5691 5694 5696 5700 5703 5706 5709
5727 5726 5725 5724 5723 5722 5721 5719 5716 5713 5711 5709 5709 5708 5707 5707 5706 5705 5703 5701 5699 5697 5695 5694 5692 5690 5687 5685 5683 5682 5680 5678 5677 5675 5675 5680 5685 5690 5693 5696 5699 5702 5705
5725 5724 5723 5722 5721 5720 5719 5717 5715 5712 5710 5709 5707 5706 5705 5705 5704 5704 5702 5701 5699 5697 5695 5693 5691 5689 5687 5685 5683 5681 5679 5677 5676 5674 5673 5674 5677 5684 5689 5693 5696 5699 5702